Location: Unspecified
(0.0000°N, 0.0000°E)
Time: 01:04:44
(UTC+00:00)

Vanguard 1 - Pass Details

Date: 08 December 2017
Orbit: 649 x 3834 km, 34.3° (Epoch: 16 January)

Event Time Altitude Azimuth Distance (km) Brightness Sun altitude
Rises 21:20:01 0° 262° (W) 3,111 13.3 -46.6°
Enters shadow 21:22:51 - 240° (WSW) 2,452 12.7 -47.1°
Exits shadow 21:34:55 - 148° (SSE) 4,510 13.5 -49.6°
Sets 21:35:51 0° 146° (SE) 4,812 13.6 -49.8°
